カタログに戻る

DELTA 1 DEB

運用中LEO
NORAD 7129·DEBRIS·🇺🇸 United States

打ち上げ Nov 6, 1973 から Vandenberg Space Force Base

Loading…

次のパス (今後24時間)

TLE

最新Source: Space-Track

元期: Sep 14, 2026, 08:12 UTC

1 07129U 73086CT  26257.34198427 -.00000209  00000-0 -18121-2 0  9991
2 07129 102.0162 107.1311 0243935 183.1163 352.7173 12.04471649318082

AllMySatでDELTA 1 DEBをリアルタイム追跡

Download on the App Store